Location: Hardenberg
(52.5670°N, 6.6170°E)
Time: 01:59:10
(UTC+01:00)

ISS - Visible Passes

Search period start: 19 December 2018 00:00
Search period end: 29 December 2018 00:00
Orbit: 401 x 408 km, 51.6° (Epoch: 19 December)

Date Brightness Start Highest point End Pass type
(mag) Time Alt. Az. Time Alt. Az. Time Alt. Az.
23 Dec -0.7 07:48:27 10° S 07:50:43 17° SE 07:52:58 10° E visible
24 Dec -0.4 06:57:38 10° SSE 06:58:44 11° SE 06:59:51 10° ESE visible
25 Dec -1.7 07:39:33 10° SSW 07:42:27 28° SSE 07:45:20 10° E visible
26 Dec -1.2 06:47:53 10° SSW 06:50:22 20° SE 06:52:51 10° E visible
27 Dec -0.8 05:56:44 10° S 05:58:20 13° SE 06:00:00 10° ESE visible
27 Dec -2.7 07:31:04 10° SW 07:34:13 44° SSE 07:37:23 10° E visible
28 Dec -2.2 06:39:54 16° SSW 06:42:03 32° SSE 06:45:02 10° E visible
